User: anonymous   Login
Location: Unspecified
(0.0000°N, 0.0000°E)
Time: 09:52:48
(UTC+02:00)
Language:

CZ-2C R/B - Orbit

View from above orbital plane
View from above orbital plane
View from above satellite
View from above satellite

Ground track
Ground track

The orbit data is extracted from the following two-line orbital elements,

1 28480U 04046B   17143.39310807 +.00000009 +00000-0 +19607-4 0  9999
2 28480 098.1944 241.1808 0140881 297.9805 102.6581 14.25636683650700
Epoch (UTC): 23 May 2017 09:26:04
Eccentricity: 0.0140881
inclination: 98.1944°
perigee height: 705 km
apogee height: 907 km
right ascension of ascending node: 241.1808°
argument of perigee: 297.9805°
revolutions per day: 14.25636683
mean anomaly at epoch: 102.6581°
orbit number at epoch: 65070

The dashed part of the orbit path shows where the satellite is in the earth's shadow,  

DLR